Other Surface Observations
Issued by NWS Tucson, AZ

Home | Current Version | Previous Version | Text Only | Print | Product List | Glossary On
Versions: 1 2 3 4 5 6 7 8 9 10 11 12 13 14 15 16 17 18 19 20 21 22 23 24 25 26 27 28 29 30 31 32 33 34 35 36 37 38 39 40 41 42 43 44 45 46 47 48 49 50
911
SXUS55 KTWC 011815
OSOTWC

WEATHER ROUNDUP FOR SOUTHEAST ARIZONA
NATIONAL WEATHER SERVICE TUCSON AZ
1115 AM MST WED MAR 01 2017

AZZ504>506-514-011915-
LOCATION       SKY/WX    TMP DP  RH WIND       PRES   REMARKS
TUCSON         SUNNY     61  39  44 VRB5      30.27S
DAVIS-MONTHAN  SUNNY     59  39  48 CALM      30.26S
CHILDRENS PARK N/A      N/A N/A  63 SW2               PIMA CO DEQ
ALVERNON/22ND  N/A       55 N/A N/A SW3               PIMA CO DEQ
CHERRY/GLENN   N/A       56 N/A N/A SW3               PIMA CO DEQ
TANGERINE      N/A       58 N/A N/A NE10              PIMA CO DEQ
CONTL RANCH    N/A       57  41  55 SE5               PIMA CO DEQ
GRANT/1ST      N/A       53  42  65 SW2               PIMA CO DEQ
CRAYCROFT/22ND N/A       56  41  56 N/A               PIMA CO DEQ
GOLFLINKS/KOLB N/A       54  40  59 NE2               PIMA CO DEQ
AJO/12TH       N/A       56  41  57 S5                PIMA CO DEQ
FAIRGROUNDS    N/A       56 N/A N/A E9                PIMA CO DEQ
SAGUARO        N/A       61  42  50 SW3               *SABINO CYN
SAN CARLOS     N/A       54  33  45 SW4               *SAN CARLOS
GREEN VALLEY   N/A       53  39  60 SE3               PIMA CO DEQ
HORSE CAMP CYN N/A       51  36  56 E6G11             *ARAVAIPA CYN
RINCON MTNS    N/A       45  30  56 SW2               *NR MANNING CAMP
$$

AZZ509>511-011915-
LOCATION       SKY/WX    TMP DP  RH WIND       PRES   REMARKS
SAFFORD        SUNNY     55  33  43 SE5       30.29S
STRAY HORSE    N/A       39  26  59 N/A               *
TRAIL CABIN    N/A       44  25  47 E6G10             *N OF GRANVILLE
BLACK HILLS    NOT AVBL
DRY LAKE       N/A       41  27  58 SE3               *NATANES MTNS
NOON CREEK     N/A       50  36  59 NE5G10            *PINALENO MTNS
COLUMBINE      N/A       34  31  87 W3                *PINALENO MTNS
GUTHRIE        N/A       42  22  45 NE6G15            *SW OF GUTHRIE
$$

AZZ502-503-513-011915-
LOCATION       SKY/WX    TMP DP  RH WIND       PRES   REMARKS
NOGALES        SUNNY     60  34  37 VRB3      30.24S
SELLS          N/A       62  40  44 E11G17            *
SASABE         N/A       58  39  49 NE7G12            *ALTAR VLY
HOPKINS        N/A       51  29  42 SE8G12            *SANTA RITA MTNS
CARR CYN       N/A       54  38  54 E3                *W OF HEREFORD
$$

AZZ507-508-512-011915-
LOCATION       SKY/WX    TMP DP  RH WIND       PRES   REMARKS
SIERRA VISTA   SUNNY     55  35  47 VRB7      30.29R
DOUGLAS        SUNNY     57  34  41 CALM      30.28S
EMPIRE MTNS    NOT AVBL
MULESHOE RANCH N/A       52  33  48 E6G10             *PRESERVE
HEADQUARTERS   N/A       54  33  45 E5G11             *CHIRICAHUA MTNS
$$

.............................NOTES.............................
THIS IS AN AUTOMATED COLLECTIVE WITH MINIMAL QUALITY CONTROL.
PIMA CO DEQ SITES HAVE NONSTANDARD WIND SENSOR HEIGHTS.
PIMA CO DEQ SITES DO NOT REPORT WIND GUSTS.
* INDICATES WIND SENSORS LOCATED AT 20 FEET INSTEAD OF 33 FEET.
..............................KEY..............................
SKY/WX - SKY CONDITION/WEATHER
TMP    - TEMPERATURE IN FAHRENHEIT
DP     - DEWPOINT IN FAHRENHEIT
RH     - RELATIVE HUMIDITY IN PERCENT
WIND   - DIRECTION AND SPEED IN MILES PER HOUR (MPH)
VRB    - VARIABLE WIND DIRECTION
PRES   - MEAN SEA LEVEL PRESSURE IN INCHES OF MERCURY
         F - FALLING PRESSURE   R - RISING PRESSURE
         S - STEADY PRESSURE
VSB    - VISIBILITY IN MILES
HX     - HEAT INDEX IN FAHRENHEIT
WCI    - WIND CHILL INDEX IN FAHRENHEIT
N/A    - NOT AVAILABLE
AFB    - AIR FORCE BASE
         DAVIS-MONTHAN IS DAVIS-MONTHAN AIR FORCE BASE
CYN    - CANYON
MTNS   - MOUNTAINS
NCA    - NATIONAL CONSERVATION AREA
NR     - NEAR
VLY    - VALLEY
CONTL  - CONTINENTAL
PIMA CO DEQ - PIMA COUNTY DEPT OF ENVIRONMENTAL QUALITY



USA.gov is the U.S. government's official web portal to all federal, state and local government web resources and services.